Flag for Hong Kong Weather past 2 weeks in Hong Kong, Hong Kong

Now
63 °F

Passing clouds.


Feels Like: 63 °F
Forecast: 60 / 69 °F
Wind: 17 mph from Southeast

Location: National Airport

Current Time: Jan 29, 2015 at 3:17:41 AM

Latest Report: Jan 29, 2015 at 3:00 AM


Visibility: N/A

Pressure: 30.07 "Hg

Humidity: 68%

Dew point: 52 °F

Location of Hong KongLocation

Historic Weather in Hong Kong — Graph

°F

Hong Kong temperature yesterday

Maximum temperature yesterday: 70 °F (at 12:00 PM)
Minimum temperature yesterday: 63 °F (at 2:00 AM)
Average temperature yesterday: 64 °F

Past Weeks' High & Low Weather Summary

 TemperatureHumidityPressure
High73 °F (Jan 22, 1:00 PM)88% (Jan 26, 4:00 AM)30.33 "Hg (Jan 26, 4:00 AM)
Low52 °F (Jan 14, 3:00 AM)22% (Jan 22, 1:30 PM)29.98 "Hg (Jan 27, 3:00 PM)
Average64 °F60%30.14 "Hg
* Reported Jan 14 2:00 AM — Jan 29 2:00 AM, Hong Kong, Weather by CustomWeather, © 2014

Note: Actual official high and low records may vary slightly from our data, if they occured in-between our weather recording intervals... More about our weather records

Advertising

Hong Kong weather history for previous 24 hours

 ConditionsComfort  
Time TempWeatherWind HumidityBarometerVisibility
2:00 AM
Jan 29
63 °FPassing clouds.20 mph68%30.09 "HgN/A
1:30 AM63 °FPassing clouds.16 mph68%30.09 "HgN/A
1:00 AM63 °FPassing clouds.16 mph68%30.09 "HgN/A
12:30 AM63 °FPassing clouds.15 mph73%30.09 "HgN/A
12:00 AM63 °FPassing clouds.15 mph73%30.09 "HgN/A
11:30 PM
Jan 28
63 °FPassing clouds.15 mph73%30.09 "HgN/A
11:00 PM63 °FPassing clouds.15 mph68%30.12 "HgN/A
10:30 PM64 °FPassing clouds.16 mph64%30.12 "HgN/A
10:00 PM63 °FPassing clouds.14 mph68%30.09 "HgN/A
9:30 PM63 °FPassing clouds.15 mph68%30.09 "HgN/A
9:00 PM64 °FPassing clouds.16 mph68%30.09 "HgN/A
8:30 PM63 °FPassing clouds.16 mph73%30.09 "HgN/A
8:00 PM64 °FPassing clouds.14 mph68%30.09 "HgN/A
7:30 PM63 °FPassing clouds.15 mph68%30.07 "HgN/A
7:00 PM63 °FPassing clouds.16 mph68%30.07 "HgN/A
6:30 PM63 °FPassing clouds.16 mph68%30.04 "HgN/A
6:00 PM63 °FScattered clouds.17 mph73%30.04 "HgN/A
5:30 PM64 °FScattered clouds.18 mph68%30.04 "HgN/A
5:00 PM64 °FScattered clouds.18 mph68%30.04 "HgN/A
4:30 PM66 °FScattered clouds.20 mph64%30.01 "HgN/A
4:00 PM68 °FScattered clouds.18 mph60%30.01 "HgN/A
3:30 PM66 °FScattered clouds.18 mph60%30.01 "HgN/A
3:00 PM66 °FScattered clouds.18 mph60%30.01 "HgN/A
2:30 PM68 °FScattered clouds.18 mph60%30.04 "HgN/A
2:00 PM68 °FScattered clouds.18 mph60%30.04 "HgN/A
1:30 PM68 °FScattered clouds.20 mph60%30.04 "HgN/A
1:00 PM68 °FPassing clouds.18 mph60%30.07 "HgN/A
12:30 PM68 °FPassing clouds.20 mph60%30.07 "HgN/A
12:00 PM70 °FPassing clouds.18 mph53%30.07 "HgN/A
11:30 AM68 °FPassing clouds.20 mph56%30.07 "HgN/A
11:00 AM68 °FPassing clouds.21 mph60%30.09 "HgN/A
10:30 AM66 °FPassing clouds.21 mph64%30.09 "HgN/A
10:00 AM66 °FPassing clouds.21 mph64%30.09 "HgN/A
9:30 AM64 °FPassing clouds.20 mph73%30.09 "HgN/A
9:00 AM64 °FPassing clouds.21 mph68%30.09 "HgN/A
8:30 AM64 °FPassing clouds.21 mph73%30.09 "HgN/A
8:00 AM63 °FPassing clouds.23 mph77%30.09 "HgN/A
7:30 AM63 °FPassing clouds.21 mph77%30.07 "HgN/A
7:00 AM63 °FPassing clouds.22 mph77%30.07 "HgN/A
6:30 AM63 °FPassing clouds.21 mph77%30.04 "HgN/A
6:00 AM63 °FPassing clouds.21 mph77%30.04 "HgN/A
5:30 AM63 °FPassing clouds.20 mph77%30.04 "HgN/A
5:00 AM63 °FPassing clouds.17 mph77%30.04 "HgN/A
4:30 AM63 °FPassing clouds.17 mph77%30.04 "HgN/A
4:00 AM63 °FPassing clouds.17 mph77%30.04 "HgN/A
3:30 AM63 °FPassing clouds.17 mph83%30.04 "HgN/A
3:00 AM63 °FPassing clouds.16 mph83%30.04 "HgN/A
Weather by CustomWeather, © 2014

See weather overviewHow to use our weather pages